STARLINK-37184

Last updated on Sun Apr 12 2026 00:02:09 GMT+0000 (Coordinated Universal Time)

1 68393U 26063P 26101.42624992 .00085898 00000+0 44402-3 0 9998 2 68393 97.2829 242.8022 0001219 58.4440 301.6948 15.80853649 2794
UTC large
Height (km)
Speed (km/s)
/
Latitude / Longitude
Inclination (degrees)
Orbital Period (minutes)
Azimuth
Elevation
Range (km)
Doppler Factor

Next 0 passes for location: London (51.5072 / 0.1276)

Sorry there are no passes over London.
STARLINK-37184